Terminal Aerodrome Forecast
Issued by NWS Sioux Falls, SD

Home | Current Version | Previous Version | Text Only | Print | Product List | Glossary On
Versions: 1 2 3 4 5 6 7 8 9 10 11 12 13 14 15 16 17 18 19
000
FTUS43 KFSD 011138
TAFHON
TAF
KHON 011138Z 0112/0212 35018G25KT 2SM -SN OVC015
     FM011400 34018G25KT 4SM -SN OVC025
     FM011600 34018G25KT P6SM BKN030
     FM011900 34015G22KT P6SM SCT040 BKN080
     FM012200 35012KT P6SM SKC
     FM020300 VRB03KT P6SM SKC=

USA.gov is the U.S. government's official web portal to all federal, state and local government web resources and services.